Time,TemperatureF,DewpointF,PressureIn,WindDirection,WindDirectionDegrees,WindSpeedMPH,WindSpeedGustMPH,Humidity,HourlyPrecipIn,Conditions,Clouds,dailyrainin,SoftwareType,DateUTC
2013-01-21 07:41:00,14.7,6.7,30.11,West,270,3.1,3.1,70,0.00,,,0.00,WUHU216HW,2013-01-21 12:41:00,
2013-01-21 07:42:00,14.7,6.7,30.10,West,270,3.1,3.1,70,0.00,,,0.00,WUHU216HW,2013-01-21 12:42:00,
2013-01-21 07:47:00,14.7,6.7,30.11,SW,225,9.8,9.8,70,0.00,,,0.00,WUHU216HW,2013-01-21 12:47:00,
2013-01-21 07:52:00,14.7,6.3,30.11,NW,315,5.8,9.8,69,0.00,,,0.00,WUHU216HW,2013-01-21 12:52:00,
2013-01-21 07:57:00,14.7,6.3,30.11,SSW,203,3.5,9.8,69,0.00,,,0.00,WUHU216HW,2013-01-21 12:57:00,
2013-01-21 08:02:00,14.7,6.3,30.11,SSW,203,3.5,5.8,69,0.00,,,0.00,WUHU216HW,2013-01-21 13:02:00,
2013-01-21 08:07:00,14.3,6.4,30.12,WNW,293,8.2,8.2,70,0.00,,,0.00,WUHU216HW,2013-01-21 13:07:00,
2013-01-21 08:12:00,14.1,6.2,30.12,WNW,293,8.2,8.2,70,0.00,,,0.00,WUHU216HW,2013-01-21 13:12:00,
2013-01-21 08:17:00,14.1,6.2,30.12,WNW,293,8.2,8.2,70,0.00,,,0.00,WUHU216HW,2013-01-21 13:17:00,
2013-01-21 08:22:00,14.1,6.5,30.12,WNW,293,8.7,8.7,71,0.00,,,0.00,WUHU216HW,2013-01-21 13:22:00,
2013-01-21 08:27:00,14.1,6.5,30.12,NW,315,4.4,8.7,71,0.00,,,0.00,WUHU216HW,2013-01-21 13:27:00,
2013-01-21 08:32:00,14.1,6.2,30.13,NW,315,15.6,15.6,70,0.00,,,0.00,WUHU216HW,2013-01-21 13:32:00,
2013-01-21 08:37:00,14.1,6.2,30.13,NW,315,15.6,15.6,70,0.00,,,0.00,WUHU216HW,2013-01-21 13:37:00,
2013-01-21 08:42:00,14.1,6.5,30.13,NW,315,15.6,15.6,71,0.00,,,0.00,WUHU216HW,2013-01-21 13:42:00,
2013-01-21 08:47:00,14.1,6.8,30.13,North,0,1.1,15.6,72,0.00,,,0.00,WUHU216HW,2013-01-21 13:47:00,
2013-01-21 08:52:00,13.8,6.7,30.13,North,0,1.1,1.1,73,0.00,,,0.00,WUHU216HW,2013-01-21 13:52:00,
2013-01-21 08:57:00,13.8,6.7,30.14,WNW,293,5.3,8.7,73,0.00,,,0.00,WUHU216HW,2013-01-21 13:57:00,
2013-01-21 09:02:00,13.8,6.7,30.14,WNW,293,3.8,8.7,73,0.00,,,0.00,WUHU216HW,2013-01-21 14:02:00,
2013-01-21 09:07:00,14.0,7.2,30.15,West,270,5.8,5.8,74,0.00,,,0.00,WUHU216HW,2013-01-21 14:07:00,
2013-01-21 09:12:00,14.0,7.5,30.15,NW,315,4.4,5.8,75,0.00,,,0.00,WUHU216HW,2013-01-21 14:12:00,
2013-01-21 09:17:00,13.8,7.6,30.16,West,270,4.9,5.8,76,0.00,,,0.00,WUHU216HW,2013-01-21 14:17:00,
2013-01-21 09:22:00,13.6,7.4,30.15,West,270,1.7,4.9,76,0.00,,,0.00,WUHU216HW,2013-01-21 14:22:00,
2013-01-21 09:27:00,13.6,7.4,30.16,West,270,4.9,4.9,76,0.00,,,0.00,WUHU216HW,2013-01-21 14:27:00,
2013-01-21 09:32:00,13.8,7.3,30.16,WNW,293,15.8,15.8,74,0.00,,,0.00,WUHU216HW,2013-01-21 14:32:00,
2013-01-21 09:37:00,13.8,7.0,30.16,WNW,293,15.8,15.8,74,0.00,,,0.00,WUHU216HW,2013-01-21 14:37:00,
2013-01-21 09:42:00,14.1,5.5,30.16,NNW,338,4.4,15.8,68,0.00,,,0.00,WUHU216HW,2013-01-21 14:42:00,
2013-01-21 09:47:00,14.1,5.5,30.16,NNW,338,4.4,15.8,68,0.00,,,0.00,WUHU216HW,2013-01-21 14:47:00,
2013-01-21 09:52:00,14.1,5.9,30.16,West,270,11.1,11.1,69,0.00,,,0.00,WUHU216HW,2013-01-21 14:52:00,
2013-01-21 09:57:00,14.1,6.5,30.17,North,0,4.2,11.1,71,0.00,,,0.00,WUHU216HW,2013-01-21 14:57:00,
2013-01-21 10:02:00,13.8,7.1,30.17,West,270,11.1,11.1,73,0.00,,,0.00,WUHU216HW,2013-01-21 15:02:00,
2013-01-21 10:07:00,13.8,7.3,30.17,West,270,11.1,11.1,75,0.00,,,0.00,WUHU216HW,2013-01-21 15:07:00,
2013-01-21 10:12:00,13.8,7.3,30.18,NW,315,10.2,11.1,75,0.00,,,0.00,WUHU216HW,2013-01-21 15:12:00,
2013-01-21 10:17:00,13.6,7.7,30.18,WNW,293,10.2,11.1,77,0.00,,,0.00,WUHU216HW,2013-01-21 15:17:00,
2013-01-21 10:22:00,13.2,7.3,30.18,WNW,293,7.6,13.8,77,0.00,,,0.00,WUHU216HW,2013-01-21 15:22:00,
2013-01-21 10:27:00,13.2,7.3,30.18,WNW,293,7.6,13.8,77,0.00,,,0.00,WUHU216HW,2013-01-21 15:27:00,
2013-01-21 10:32:00,13.2,7.6,30.18,North,0,4.0,10.5,78,0.00,,,0.00,WUHU216HW,2013-01-21 15:32:00,
2013-01-21 10:37:00,13.1,7.4,30.18,NW,315,7.8,10.5,78,0.00,,,0.00,WUHU216HW,2013-01-21 15:37:00,
2013-01-21 10:42:00,13.1,7.4,30.18,NNW,338,8.9,8.9,78,0.00,,,0.00,WUHU216HW,2013-01-21 15:42:00,
2013-01-21 10:47:00,12.9,7.3,30.18,NW,315,11.6,11.6,78,0.00,,,0.00,WUHU216HW,2013-01-21 15:47:00,
2013-01-21 10:52:00,13.1,7.4,30.18,NW,315,9.6,11.6,78,0.00,,,0.00,WUHU216HW,2013-01-21 15:52:00,
2013-01-21 10:57:00,13.2,7.3,30.18,West,270,17.2,17.2,77,0.00,,,0.00,WUHU216HW,2013-01-21 15:57:00,
2013-01-21 11:02:00,13.2,7.0,30.18,NW,315,5.5,17.2,76,0.00,,,0.00,WUHU216HW,2013-01-21 16:02:00,
2013-01-21 11:07:00,13.6,7.1,30.18,WNW,293,10.0,10.0,75,0.00,,,0.00,WUHU216HW,2013-01-21 16:07:00,
2013-01-21 11:12:00,13.6,7.1,30.18,WNW,293,10.0,10.0,75,0.00,,,0.00,WUHU216HW,2013-01-21 16:12:00,
2013-01-21 11:17:00,14.0,6.7,30.19,North,0,2.9,12.3,72,0.00,,,0.00,WUHU216HW,2013-01-21 16:17:00,
2013-01-21 11:22:00,14.1,6.5,30.20,NNW,338,5.5,12.3,71,0.00,,,0.00,WUHU216HW,2013-01-21 16:22:00,
2013-01-21 11:27:00,14.1,6.5,30.19,NW,315,1.1,5.5,71,0.00,,,0.00,WUHU216HW,2013-01-21 16:27:00,
2013-01-21 11:32:00,14.1,6.5,30.19,NW,315,1.1,5.5,71,0.00,,,0.00,WUHU216HW,2013-01-21 16:32:00,
2013-01-21 11:37:00,14.1,6.5,30.20,NW,315,1.1,1.1,71,0.00,,,0.00,WUHU216HW,2013-01-21 16:37:00,
2013-01-21 11:42:00,14.5,5.8,30.19,NW,315,1.1,1.1,68,0.00,,,0.00,WUHU216HW,2013-01-21 16:42:00,
2013-01-21 11:47:00,14.5,5.8,30.20,NW,315,1.1,1.1,68,0.00,,,0.00,WUHU216HW,2013-01-21 16:47:00,
2013-01-21 11:52:00,14.5,5.8,30.20,WNW,293,10.7,10.7,68,0.00,,,0.00,WUHU216HW,2013-01-21 16:52:00,
2013-01-21 11:57:00,14.1,5.5,30.20,West,270,6.2,10.7,68,0.00,,,0.00,WUHU216HW,2013-01-21 16:57:00,
2013-01-21 12:02:00,14.1,5.5,30.20,South,180,2.9,10.7,68,0.00,,,0.00,WUHU216HW,2013-01-21 17:02:00,
2013-01-21 12:07:00,13.8,5.9,30.19,WNW,293,4.9,6.4,70,0.00,,,0.00,WUHU216HW,2013-01-21 17:07:00,
2013-01-21 12:12:00,13.8,5.9,30.19,West,270,3.1,9.3,70,0.00,,,0.00,WUHU216HW,2013-01-21 17:12:00,
2013-01-21 12:17:00,13.6,6.0,30.19,NNW,338,12.3,12.3,70,0.00,,,0.00,WUHU216HW,2013-01-21 17:17:00,
2013-01-21 12:22:00,13.6,6.2,30.19,WNW,293,5.3,12.3,72,0.00,,,0.00,WUHU216HW,2013-01-21 17:22:00,
2013-01-21 12:27:00,13.2,5.9,30.18,WNW,293,5.3,12.3,72,0.00,,,0.00,WUHU216HW,2013-01-21 17:27:00,
2013-01-21 12:32:00,13.2,5.9,30.19,WNW,293,5.3,5.3,72,0.00,,,0.00,WUHU216HW,2013-01-21 17:32:00,
2013-01-21 12:37:00,13.2,5.9,30.19,WNW,293,5.3,5.3,72,0.00,,,0.00,WUHU216HW,2013-01-21 17:37:00,
2013-01-21 12:42:00,13.2,5.9,30.18,WNW,293,5.3,5.3,72,0.00,,,0.00,WUHU216HW,2013-01-21 17:42:00,
2013-01-21 12:47:00,13.2,5.9,30.18,WNW,293,5.3,5.3,72,0.00,,,0.00,WUHU216HW,2013-01-21 17:47:00,
2013-01-21 12:52:00,13.8,6.4,30.18,WNW,293,9.3,9.8,72,0.00,,,0.00,WUHU216HW,2013-01-21 17:52:00,
2013-01-21 12:57:00,13.8,6.1,30.18,NW,315,10.9,10.9,71,0.00,,,0.00,WUHU216HW,2013-01-21 17:57:00,
2013-01-21 13:02:00,13.8,5.5,30.18,North,0,10.0,10.9,69,0.00,,,0.00,WUHU216HW,2013-01-21 18:02:00,
2013-01-21 13:07:00,14.0,5.7,30.19,WNW,293,11.8,11.8,69,0.00,,,0.00,WUHU216HW,2013-01-21 18:07:00,
2013-01-21 13:12:00,14.1,6.2,30.19,NW,315,8.9,11.8,70,0.00,,,0.00,WUHU216HW,2013-01-21 18:12:00,
2013-01-21 13:17:00,13.6,6.2,30.19,NW,315,9.1,11.8,72,0.00,,,0.00,WUHU216HW,2013-01-21 18:17:00,
2013-01-21 13:22:00,12.9,6.1,30.19,West,270,3.5,9.1,74,0.00,,,0.00,WUHU216HW,2013-01-21 18:22:00,
2013-01-21 13:27:00,12.7,6.2,30.18,NW,315,7.1,9.1,75,0.00,,,0.00,WUHU216HW,2013-01-21 18:27:00,
2013-01-21 13:32:00,12.7,5.9,30.19,WSW,248,7.8,12.9,73,0.00,,,0.00,WUHU216HW,2013-01-21 18:32:00,
2013-01-21 13:37:00,12.9,5.8,30.18,NW,315,8.0,12.9,73,0.00,,,0.00,WUHU216HW,2013-01-21 18:37:00,
2013-01-21 17:55:00,10.7,3.4,30.24,NW,315,3.5,3.5,72,0.00,,,0.00,WUHU216HW,2013-01-21 22:55:00,
2013-01-21 18:00:00,10.7,3.7,30.25,NNW,338,14.9,14.9,73,0.00,,,0.00,WUHU216HW,2013-01-21 23:00:00,
2013-01-21 18:03:00,10.5,3.8,30.25,NW,315,2.4,14.9,74,0.00,,,0.00,WUHU216HW,2013-01-21 23:03:00,
2013-01-21 18:04:00,10.5,3.8,30.25,NW,315,2.4,14.9,74,0.00,,,0.00,WUHU216HW,2013-01-21 23:04:00,
2013-01-21 18:05:00,10.5,3.8,30.25,NW,315,2.4,14.9,74,0.00,,,0.00,WUHU216HW,2013-01-21 23:05:00,
2013-01-21 18:06:00,10.5,3.8,30.25,North,0,5.3,14.9,74,0.00,,,0.00,WUHU216HW,2013-01-21 23:06:00,
2013-01-21 18:07:00,10.7,3.9,30.25,WNW,293,11.6,14.9,74,0.00,,,0.00,WUHU216HW,2013-01-21 23:07:00,
2013-01-21 18:08:00,10.7,3.9,30.25,WNW,293,11.6,14.9,74,0.00,,,0.00,WUHU216HW,2013-01-21 23:08:00,
2013-01-21 18:09:00,10.7,3.9,30.25,WSW,248,3.8,11.6,73,0.00,,,0.00,WUHU216HW,2013-01-21 23:09:00,
2013-01-21 18:10:00,10.7,3.7,30.25,WSW,248,3.8,11.6,73,0.00,,,0.00,WUHU216HW,2013-01-21 23:10:00,
2013-01-21 18:11:00,10.7,3.7,30.24,NNW,338,5.1,11.6,73,0.00,,,0.00,WUHU216HW,2013-01-21 23:11:00,
2013-01-21 18:12:00,10.7,3.7,30.25,NNW,338,5.1,11.6,73,0.00,,,0.00,WUHU216HW,2013-01-21 23:12:00,
2013-01-21 18:23:00,10.9,3.3,30.25,NW,315,8.9,12.3,71,0.00,,,0.00,WUHU216HW,2013-01-21 23:23:00,
2013-01-21 18:28:00,10.9,3.0,30.24,NW,315,4.0,19.6,70,0.00,,,0.00,WUHU216HW,2013-01-21 23:28:00,
2013-01-21 18:33:00,10.9,2.3,30.25,NW,315,10.7,19.6,68,0.00,,,0.00,WUHU216HW,2013-01-21 23:33:00,
2013-01-21 18:38:00,10.9,2.1,30.25,WNW,293,10.0,14.9,68,0.00,,,0.00,WUHU216HW,2013-01-21 23:38:00,
2013-01-21 18:43:00,10.9,2.0,30.25,NNE,23,3.5,10.7,67,0.00,,,0.00,WUHU216HW,2013-01-21 23:43:00,
2013-01-21 18:48:00,10.7,2.1,30.25,NW,315,8.9,10.0,68,0.00,,,0.00,WUHU216HW,2013-01-21 23:48:00,
2013-01-21 18:53:00,10.7,2.4,30.25,WNW,293,6.2,8.9,69,0.00,,,0.00,WUHU216HW,2013-01-21 23:53:00,
2013-01-21 18:58:00,10.5,2.6,30.25,WNW,293,14.3,14.3,70,0.00,,,0.00,WUHU216HW,2013-01-21 23:58:00,
2013-01-21 19:03:00,10.7,2.4,30.25,WNW,293,6.4,14.3,69,0.00,,,0.00,WUHU216HW,2013-01-22 00:03:00,
2013-01-21 19:08:00,10.7,1.8,30.25,NW,315,6.4,14.3,67,0.00,,,0.00,WUHU216HW,2013-01-22 00:08:00,
2013-01-21 19:13:00,10.7,1.8,30.25,NNW,338,7.6,12.0,67,0.00,,,0.00,WUHU216HW,2013-01-22 00:13:00,
2013-01-21 19:18:00,10.7,1.5,30.26,NW,315,10.9,12.0,66,0.00,,,0.00,WUHU216HW,2013-01-22 00:18:00,
2013-01-21 19:23:00,10.7,1.6,30.26,NNW,338,6.9,12.3,66,0.00,,,0.00,WUHU216HW,2013-01-22 00:23:00,
2013-01-21 19:27:00,10.7,1.8,30.26,NNW,338,11.8,12.3,67,0.00,,,0.00,WUHU216HW,2013-01-22 00:27:00,
2013-01-21 19:32:00,10.7,1.5,30.25,NW,315,10.9,11.8,66,0.00,,,0.00,WUHU216HW,2013-01-22 00:32:00,
2013-01-21 19:37:00,10.5,1.6,30.25,WNW,293,15.2,15.2,67,0.00,,,0.00,WUHU216HW,2013-01-22 00:37:00,
2013-01-21 19:42:00,10.5,1.9,30.26,WNW,293,12.0,15.2,68,0.00,,,0.00,WUHU216HW,2013-01-22 00:42:00,
2013-01-21 19:47:00,10.2,1.6,30.26,WNW,293,12.0,15.2,68,0.00,,,0.00,WUHU216HW,2013-01-22 00:47:00,
2013-01-21 19:52:00,10.2,2.3,30.26,West,270,6.0,12.0,70,0.00,,,0.00,WUHU216HW,2013-01-22 00:52:00,
2013-01-21 19:57:00,10.2,2.6,30.26,North,0,8.2,19.4,71,0.00,,,0.00,WUHU216HW,2013-01-22 00:57:00,
2013-01-21 20:02:00,10.4,2.4,30.26,NW,315,5.8,19.4,70,0.00,,,0.00,WUHU216HW,2013-01-22 01:02:00,
2013-01-21 20:07:00,10.5,2.6,30.26,WNW,293,7.6,12.5,70,0.00,,,0.00,WUHU216HW,2013-01-22 01:07:00,
2013-01-21 20:12:00,10.5,2.6,30.26,NW,315,6.9,12.5,70,0.00,,,0.00,WUHU216HW,2013-01-22 01:12:00,
2013-01-21 20:17:00,10.5,2.6,30.25,WNW,293,7.3,7.6,70,0.00,,,0.00,WUHU216HW,2013-01-22 01:17:00,
2013-01-21 20:22:00,10.5,2.6,30.26,West,270,12.3,12.3,70,0.00,,,0.00,WUHU216HW,2013-01-22 01:22:00,
2013-01-21 20:27:00,10.5,2.9,30.25,WNW,293,17.8,17.8,71,0.00,,,0.00,WUHU216HW,2013-01-22 01:27:00,
2013-01-21 20:32:00,10.5,2.9,30.25,NNW,338,3.8,17.8,71,0.00,,,0.00,WUHU216HW,2013-01-22 01:32:00,
2013-01-21 20:37:00,10.4,2.6,30.25,WNW,293,9.6,17.8,71,0.00,,,0.00,WUHU216HW,2013-01-22 01:37:00,
2013-01-21 20:42:00,10.2,2.8,30.25,NNW,338,7.3,11.1,72,0.00,,,0.00,WUHU216HW,2013-01-22 01:42:00,
2013-01-21 20:47:00,10.2,2.8,30.25,NNW,338,9.8,11.1,72,0.00,,,0.00,WUHU216HW,2013-01-22 01:47:00,
2013-01-21 20:52:00,10.2,2.6,30.25,WNW,293,17.8,17.8,71,0.00,,,0.00,WUHU216HW,2013-01-22 01:52:00,
2013-01-21 20:57:00,10.2,2.6,30.25,NW,315,8.9,17.8,71,0.00,,,0.00,WUHU216HW,2013-01-22 01:57:00,
2013-01-21 21:02:00,10.2,2.8,30.25,NW,315,9.6,17.8,72,0.00,,,0.00,WUHU216HW,2013-01-22 02:02:00,
2013-01-21 21:07:00,10.2,2.8,30.25,NW,315,3.1,9.6,72,0.00,,,0.00,WUHU216HW,2013-01-22 02:07:00,
2013-01-21 21:12:00,10.2,2.8,30.25,WNW,293,9.6,14.5,72,0.00,,,0.00,WUHU216HW,2013-01-22 02:12:00,
2013-01-21 21:17:00,10.2,2.6,30.25,WNW,293,11.8,14.5,71,0.00,,,0.00,WUHU216HW,2013-01-22 02:17:00,
2013-01-21 21:22:00,10.0,3.1,30.25,NNW,338,6.7,15.6,73,0.00,,,0.00,WUHU216HW,2013-01-22 02:22:00,
2013-01-21 21:27:00,10.0,3.0,30.25,NW,315,6.2,15.6,73,0.00,,,0.00,WUHU216HW,2013-01-22 02:27:00,
2013-01-21 21:32:00,10.2,3.1,30.25,NW,315,6.0,7.3,73,0.00,,,0.00,WUHU216HW,2013-01-22 02:32:00,
2013-01-21 21:37:00,10.2,2.8,30.25,NW,315,12.9,15.4,73,0.00,,,0.00,WUHU216HW,2013-01-22 02:37:00,
2013-01-21 21:42:00,10.2,2.6,30.25,NNW,338,5.1,15.4,71,0.00,,,0.00,WUHU216HW,2013-01-22 02:42:00,
2013-01-21 21:47:00,10.2,2.3,30.25,WNW,293,12.9,12.9,70,0.00,,,0.00,WUHU216HW,2013-01-22 02:47:00,
2013-01-21 21:52:00,10.2,1.9,30.25,WNW,293,8.9,12.9,69,0.00,,,0.00,WUHU216HW,2013-01-22 02:52:00,
2013-01-21 21:57:00,10.2,2.3,30.25,WNW,293,13.6,13.6,70,0.00,,,0.00,WUHU216HW,2013-01-22 02:57:00,
2013-01-21 22:02:00,10.2,2.3,30.25,WNW,293,14.3,14.3,70,0.00,,,0.00,WUHU216HW,2013-01-22 03:02:00,
2013-01-21 22:07:00,10.2,2.6,30.25,WNW,293,15.8,18.3,71,0.00,,,0.00,WUHU216HW,2013-01-22 03:07:00,
2013-01-21 22:12:00,10.2,2.6,30.25,NW,315,9.1,18.3,71,0.00,,,0.00,WUHU216HW,2013-01-22 03:12:00,
2013-01-21 22:17:00,10.0,2.4,30.24,NW,315,14.9,15.8,71,0.00,,,0.00,WUHU216HW,2013-01-22 03:17:00,
2013-01-21 22:22:00,10.0,2.4,30.24,NW,315,12.7,14.9,71,0.00,,,0.00,WUHU216HW,2013-01-22 03:22:00,
2013-01-21 22:27:00,10.0,2.7,30.25,North,0,8.5,12.7,72,0.00,,,0.00,WUHU216HW,2013-01-22 03:27:00,
2013-01-21 22:32:00,10.0,3.0,30.24,North,0,6.0,14.0,73,0.00,,,0.00,WUHU216HW,2013-01-22 03:32:00,
2013-01-21 22:37:00,9.6,2.9,30.24,NW,315,6.0,14.0,74,0.00,,,0.00,WUHU216HW,2013-01-22 03:37:00,
2013-01-21 22:42:00,9.6,2.6,30.25,North,0,4.4,11.4,73,0.00,,,0.00,WUHU216HW,2013-01-22 03:42:00,
2013-01-21 22:47:00,9.6,2.9,30.25,WNW,293,14.5,14.5,74,0.00,,,0.00,WUHU216HW,2013-01-22 03:47:00,
2013-01-21 22:52:00,9.6,3.2,30.24,NNW,338,8.0,14.5,75,0.00,,,0.00,WUHU216HW,2013-01-22 03:52:00,
2013-01-21 22:57:00,9.6,3.5,30.25,NNW,338,15.4,15.4,76,0.00,,,0.00,WUHU216HW,2013-01-22 03:57:00,
2013-01-21 23:02:00,9.6,3.5,30.24,North,0,7.6,15.4,76,0.00,,,0.00,WUHU216HW,2013-01-22 04:02:00,
2013-01-21 23:07:00,9.6,3.2,30.25,West,270,10.0,10.0,75,0.00,,,0.00,WUHU216HW,2013-01-22 04:07:00,
2013-01-21 23:12:00,9.6,3.5,30.24,WNW,293,9.6,15.6,76,0.00,,,0.00,WUHU216HW,2013-01-22 04:12:00,
2013-01-21 23:17:00,9.5,3.3,30.25,NNE,23,4.6,15.6,76,0.00,,,0.00,WUHU216HW,2013-01-22 04:17:00,
2013-01-21 23:22:00,9.5,3.1,30.25,NNW,338,7.3,17.2,75,0.00,,,0.00,WUHU216HW,2013-01-22 04:22:00,
2013-01-21 23:27:00,9.5,2.8,30.25,NNW,338,4.6,17.2,74,0.00,,,0.00,WUHU216HW,2013-01-22 04:27:00,
2013-01-21 23:32:00,9.5,2.8,30.25,NNW,338,5.3,16.3,74,0.00,,,0.00,WUHU216HW,2013-01-22 04:32:00,
2013-01-21 23:37:00,9.3,2.6,30.25,NNW,338,6.2,12.9,74,0.00,,,0.00,WUHU216HW,2013-01-22 04:37:00,
2013-01-21 23:42:00,9.3,2.6,30.24,NNW,338,12.7,12.9,74,0.00,,,0.00,WUHU216HW,2013-01-22 04:42:00,
2013-01-21 23:47:00,9.3,2.6,30.25,NW,315,11.4,12.9,74,0.00,,,0.00,WUHU216HW,2013-01-22 04:47:00,
2013-01-21 23:52:00,9.1,2.4,30.25,North,0,3.3,11.4,74,0.00,,,0.00,WUHU216HW,2013-01-22 04:52:00,
2013-01-21 23:57:00,9.1,2.4,30.25,NW,315,5.8,5.8,74,0.00,,,0.00,WUHU216HW,2013-01-22 04:57:00,